Location: Liederschiedt
(49.1221°N, 7.4967°E)
Time: 06:39:50
(UTC+00:00)

Daily predictions for brighter satellites

Satellite Brightness Start Highest point End
(mag) Time Altitude Azimuth Time Altitude Azimuth Time Altitude Azimuth
ADEOS Rocket 3.3 16:37:02 10° NNE 16:43:25 83° ESE 16:50:31 10° SSW
Envisat 3.3 16:38:30 10° S 16:43:35 75° WSW 16:48:41 10° NNW
FALCON 9 DEB 3.9 16:41:48 10° WNW 16:45:06 42° N 16:48:24 10° ENE
Okean O Rocket 1.6 16:41:19 10° SSE 16:45:41 79° ENE 16:50:03 10° NNW
ERBS 3.9 16:44:36 10° WNW 16:47:26 25° NNW 16:50:16 10° NE
YAOGAN 1 4.0 16:45:01 10° E 16:47:52 17° ENE 16:50:43 10° NNE
FALCON 9 DEB 4.3 16:45:15 10° SSW 16:47:59 25° SE 16:50:42 10° E
USA 281 3.3 16:42:02 10° SSE 16:48:37 88° WSW 16:55:14 10° NNW
Landsat 5 3.9 16:48:13 10° N 16:52:04 62° WNW 16:55:58 10° SSW
FALCON 9 DEB 4.2 16:49:24 10° SSW 16:52:12 28° SE 16:55:00 10° E
Meteor 2-14 Rocket 4.4 16:47:25 10° N 16:53:36 74° E 16:59:42 10° SSE
CZ-2C R/B 4.2 16:49:32 10° ESE 16:54:10 26° ENE 16:58:43 10° N
Cosmos 2219 3.5 16:48:49 10° NNW 16:54:25 49° NE 16:59:59 10° SE
SMAP 3.2 16:49:54 10° SSE 16:54:33 85° WSW 16:59:15 10° NNW
Cosmos 1943 Rocket 4.2 16:53:11 10° W 16:57:24 22° NW 17:01:37 10° N
Cosmos 1726 Rocket 3.9 16:53:22 10° SSE 16:57:27 41° E 17:01:36 10° NNE
Cosmos 1758 Rocket 3.7 16:54:38 10° NNW 16:59:04 81° W 17:03:26 10° S
Meteor 2-21 4.5 16:54:06 10° N 17:00:18 86° E 17:06:25 10° S
Cosmos 1328 4.3 16:56:42 10° NNW 17:00:37 65° W 17:04:31 10° S
USA 307 3.3 16:56:26 10° WNW 17:00:38 49° NNE 17:04:41 11° E
FALCON 9 DEB 3.9 17:01:11 10° SSW 17:04:09 33° SE 17:06:44 12° E
Cosmos 2228 3.0 17:00:17 10° S 17:04:28 64° E 17:08:44 10° NNE
YAOGAN 6 3.8 17:01:20 10° S 17:04:51 47° W 17:08:28 10° NNW
CZ-4B R/B 1.3 17:02:06 10° NNE 17:05:19 56° ESE 17:08:24 10° S
USA 308 3.3 17:01:16 10° WNW 17:05:29 50° NNE 17:09:20 12° E
Cosmos 1939 Rocket 3.2 17:01:48 10° SE 17:05:32 41° ENE 17:09:14 10° N
ATLAS 5 CENTAUR R/B 3.5 17:04:17 10° WNW 17:07:49 23° NNW 17:11:45 10° NNE
Cosmos 1452 Rocket 4.5 17:05:18 10° SW 17:10:24 50° WNW 17:15:34 10° NNE
Helios 1A Rocket 3.5 17:08:58 10° SE 17:12:45 36° ENE 17:16:32 10° N
Cosmos 1606 Rocket 3.5 17:08:40 10° S 17:13:00 75° E 17:17:27 10° NNE
GENESIS II 4.2 17:11:43 10° SW 17:15:45 83° SE 17:19:49 10° NE
FALCON 9 DEB 3.5 17:12:42 10° SW 17:15:46 42° SE 17:17:56 17° E
CZ-4B R/B 4.2 17:11:15 10° S 17:16:42 54° W 17:22:07 10° NNW
ARGOS 4.3 17:13:39 10° ESE 17:17:44 22° ENE 17:21:48 10° N
Okean-O 3.1 17:15:05 10° SE 17:19:12 39° ENE 17:23:21 10° N
SKYMED 2 3.9 17:15:16 10° NNE 17:19:26 43° E 17:23:34 10° S
Cosmos 1689 Rocket 2.7 17:18:02 10° NNE 17:20:42 32° E 17:23:19 10° SSE
Cosmos 1656 4.2 17:16:53 10° S 17:21:57 37° ESE 17:27:06 10° NE
Cosmos 1745 Rocket 4.4 17:18:24 10° N 17:24:18 41° ENE 17:30:14 10° SE
Cosmos 1400 Rocket 3.1 17:20:48 10° S 17:24:45 47° E 17:28:41 10° NNE
H-2A R/B 2.9 17:22:23 10° SE 17:27:08 32° ENE 17:31:55 10° N
PSLV R/B 4.3 17:23:44 10° NNE 17:27:44 42° E 17:31:40 10° S
Cosmos 2227 Rocket 2.2 17:22:48 10° NNW 17:28:27 65° ENE 17:34:04 10° SE
GEOS 3 Rocket 4.1 17:24:33 13° ESE 17:29:06 46° NE 17:34:15 10° NNW
Cosmos 2058 3.6 17:25:26 10° N 17:29:08 32° ENE 17:32:49 10° SE
Meteor 2-16 Rocket 4.5 17:23:13 10° N 17:29:20 89° WSW 17:35:26 10° S
CZ-4 R/B 1.6 17:25:51 10° SE 17:29:30 41° ENE 17:33:09 10° N
Cosmos 1892 3.0 17:26:49 10° N 17:30:33 42° ENE 17:34:15 10° SSE
Cosmos 2263 Rocket 3.7 17:29:36 10° N 17:33:37 19° NE 17:35:33 16° ENE
Cosmos 1408 3.3 17:31:25 10° N 17:34:43 31° ENE 17:37:15 15° SE
BREEZE-M DEB (TANK) 4.4 17:31:08 10° W 17:35:05 72° N 17:46:14 17° ENE
BREEZE-M R/B 3.7 17:26:11 10° W 17:35:25 88° N 17:37:08 24° E
CSL-04 Rocket 4.2 17:30:21 10° SE 17:35:25 38° ENE 17:40:28 10° N
Cosmos 1244 Rocket 4.5 17:30:42 10° N 17:36:56 87° E 17:43:12 10° S
NOSS 3-4 (A) 4.4 17:33:36 10° NW 17:39:48 38° NNE 17:44:11 20° E
NOSS 3-4 (C) 4.4 17:33:43 10° NW 17:39:54 37° NNE 17:44:16 20° E
CZ-4C R/B 3.9 17:34:45 10° NW 17:40:09 27° NNE 17:44:24 17° ENE
Cosmos 1953 Rocket 4.2 17:37:02 10° NNW 17:41:23 59° W 17:45:44 10° S
Cosmos 1300 3.2 17:39:21 10° SSW 17:43:07 62° WNW 17:46:56 10° N
Cosmos 2058 Rocket 3.0 17:41:55 10° S 17:46:24 83° E 17:50:56 10° NNE
Cosmos 1697 Rocket 3.3 17:41:39 10° SSE 17:46:33 32° ESE 17:49:37 19° ENE
SL-4 R/B 1.9 17:44:03 10° WNW 17:47:34 59° N 17:49:04 32° ENE
IRS-1C Rocket 4.3 17:43:01 10° S 17:48:17 76° WSW 17:53:36 10° NNW
CZ-2D R/B 3.1 17:44:36 10° SSE 17:48:25 88° ENE 17:52:15 10° NNW
SeaSat 1 3.1 17:46:27 24° E 17:48:41 36° NE 17:53:10 10° NNW
Cosmos 1346 Rocket 2.9 17:45:33 10° N 17:49:29 53° ENE 17:53:23 10° SSE
NOSS 3-3 (A) 4.5 17:46:00 10° S 17:51:12 36° ESE 17:54:17 23° ENE
NOSS 3-3 (C) 4.5 17:46:05 10° S 17:51:20 36° ESE 17:54:24 23° ENE
USA 305 2.9 17:47:10 10° WNW 17:51:29 73° NNE 17:53:27 31° ESE
Cosmos 1825 2.8 17:48:16 10° N 17:51:38 32° ENE 17:51:38 32° ENE
Cosmos 1709 Rocket 4.4 17:48:07 10° N 17:54:05 40° ENE 17:59:42 11° SE
Cosmos 44 3.4 17:50:23 10° SW 17:54:55 69° NW 17:59:04 14° NE
USA 215 3.7 17:51:39 22° ENE 17:55:41 49° NNE 18:01:57 10° WNW
Cosmos 1315 Rocket 3.3 17:52:18 10° SSE 17:55:57 36° E 17:56:20 35° E
USA 306 2.8 17:53:35 10° WNW 17:57:53 77° NNE 17:59:35 36° ESE
SJ-11-01 4.4 17:53:44 10° SE 17:58:15 51° ENE 18:02:47 10° N
ERS-2 4.0 17:55:30 10° N 17:58:45 31° WNW 18:01:59 10° SW
SAR-Lupe-4 4.3 17:55:14 10° N 17:58:45 53° WNW 18:02:14 10° SSW
BREEZE-M R/B 3.5 17:57:34 10° W 18:01:29 88° NNE 18:05:18 28° E
ATLAS 2AS CENTAUR R/B 3.5 17:54:46 10° NW 18:01:58 41° NNE 18:05:17 27° ENE
Cosmos 968 Rocket 3.5 17:58:36 10° NNW 18:03:51 84° WSW 18:09:02 10° SSE
Cosmos 1340 3.5 18:00:40 10° NNW 18:04:21 51° W 18:08:00 10° S
HJ-1C 4.2 18:07:27 35° NNE 18:07:27 35° NNE 18:09:46 10° N
COSMO-SKYMED 1 3.0 18:03:14 10° N 18:07:34 65° WNW 18:11:51 10° SSW
Cosmos 2297 Rocket 2.8 18:02:43 10° NW 18:08:17 58° WSW 18:13:48 10° S
MOS 1 Rocket 3.5 18:03:49 10° NNE 18:08:20 48° E 18:13:06 10° S
Cosmos 1980 Rocket 3.5 18:04:42 10° SSE 18:07:19 22° SE 18:07:19 22° SE
Cosmos 1076 Rocket 3.4 18:05:17 10° N 18:09:30 60° ENE 18:11:35 28° SSE
Aureole 3 Rocket 3.8 18:08:02 10° SSW 18:12:03 61° WNW 18:17:41 10° N
Cosmos 2315 Rocket 4.3 18:09:49 10° SSE 18:15:31 40° E 18:21:13 10° NNE
CSL-04 Debris 4.1 18:10:19 10° SSE 18:15:45 78° ENE 18:21:15 10° NNW
S3M 3.8 18:09:51 10° S 18:15:56 75° E 18:22:07 10° NNE
Lacrosse 5 2.8 18:17:34 10° WNW 18:22:13 34° N 18:23:30 30° NE
FALCON 9 DEB 3.5 18:19:05 10° WNW 18:22:07 54° NNW 18:22:07 54° NNW
YAOGAN 1 3.0 18:19:14 10° S 18:23:31 63° WSW 18:27:51 10° NNW
FALCON 9 DEB 3.4 18:20:38 10° WSW 18:23:30 61° WNW 18:23:30 61° WNW
ERBS 4.2 18:21:45 10° NW 18:24:02 22° N 18:24:02 22° N
Cosmos 2360 4.3 18:19:50 10° S 18:25:19 49° ESE 18:26:15 45° E
FALCON 9 DEB 3.7 18:24:53 10° WSW 18:27:30 51° WNW 18:27:30 51° WNW
Cosmos 1812 Rocket 3.4 18:26:25 10° S 18:35:45 - NNE 18:30:36 70° ESE
Cosmos 1455 2.2 18:27:48 10° S 18:31:13 72° SSW 18:31:13 72° SSW
CZ-2C R/B 3.7 18:27:54 10° S 18:33:39 63° W 18:39:15 10° NNW
Cosmos 1503 Rocket 4.0 18:28:57 10° NNW 18:34:11 78° WSW 18:37:11 26° SSE
Meteor 2-3 Rocket 4.3 18:30:04 10° N 18:34:43 40° NE 18:34:43 40° NE
Cosmos 2278 4.5 18:33:12 10° S 18:36:45 34° SSE 18:36:45 34° SSE
DMSP B5D1-3 4.4 18:33:37 10° NNE 18:38:48 90° WNW 18:43:58 10° SSW
FALCON 9 DEB 4.4 18:36:57 10° W 18:39:09 37° W 18:39:09 37° W
USA 307 3.0 18:36:35 10° WNW 18:40:50 66° SSW 18:40:52 66° SSW
Meteor 2-10 Rocket 3.9 18:39:49 10° SSW 18:45:04 64° WNW 18:50:11 10° N
USA 308 3.2 18:41:26 10° WNW 18:45:31 61° SW 18:45:31 61° SW
Cosmos 1354 Rocket 4.2 18:40:29 10° NNW 18:45:44 72° WSW 18:47:53 36° S
Cosmos 2082 4.1 18:41:43 10° NW 18:47:23 61° WSW 18:50:45 24° S
ATLAS 5 CENTAUR R/B 4.0 18:51:09 10° NW 18:54:15 16° N 18:55:01 16° NNE
Cosmos 1992 Rocket 4.2 18:52:02 10° SSW 18:57:13 67° WNW 18:59:48 30° N
ARGOS 3.3 18:54:41 29° S 18:57:29 70° WSW 19:02:56 10° NNW
Cosmos 2151 4.4 18:53:54 10° N 18:56:04 29° N 18:56:04 29° N
SL-08 RB Rocket 4.4 19:00:38 46° NNW 19:00:38 46° NNW 19:03:50 10° NNW
Cosmos 2369 3.6 18:56:27 10° SSW 19:02:11 85° WNW 19:03:11 62° NNE
CZ-4 R/B 4.0 19:01:55 10° SW 19:04:43 19° W 19:07:31 10° NW
Ariane Rocket 3.6 19:07:51 47° N 19:07:51 47° N 19:11:29 10° NNW
H-2A R/B 3.1 19:01:12 10° S 19:06:23 46° W 19:11:39 10° NNW
Cosmos 1844 Rocket 4.5 19:02:43 10° N 19:05:18 19° NNE 19:05:18 19° NNE
GEOS 3 Rocket 4.4 19:05:40 39° SSW 19:07:06 48° SW 19:12:21 10° NW
Geosat 4.3 19:06:43 54° N 19:07:38 64° NW 19:12:35 10° SW
Cosmos 2227 Rocket 4.3 19:07:38 10° NW 19:12:02 24° WSW 19:16:23 10° SSW
Cosmos 2263 Rocket 2.6 19:12:49 10° NNW 19:17:16 54° N 19:17:16 54° N
SeaSat 1 3.4 19:26:16 44° WSW 19:26:16 44° WSW 19:30:51 10° NW
SL-4 R/B 4.5 19:23:34 10° WNW 19:24:38 18° WNW 19:24:38 18° WNW
CZ-4C R/B 3.1 19:23:22 10° NW 19:29:36 55° NNE 19:29:36 55° NNE
Cosmos 1697 Rocket 3.5 19:24:54 10° SW 19:30:20 49° NW 19:31:25 43° NNW
NOSS 3-4 (A) 3.7 19:24:26 10° NW 19:31:24 81° SW 19:31:39 80° SSW
NOSS 3-4 (C) 3.7 19:24:32 10° NW 19:31:30 81° SW 19:31:43 80° SSW
DEBRIS 4.3 19:24:20 10° WSW 19:36:50 70° WSW 19:36:50 70° WSW
USA 215 3.3 19:39:00 76° NW 19:39:00 76° NW 19:45:00 10° NW
NOSS 3-3 (A) 4.4 19:35:53 10° WSW 19:41:46 58° NW 19:41:47 58° NW
NOSS 3-3 (C) 4.4 19:35:59 10° WSW 19:41:53 58° NW 19:41:53 58° NW
SJ 16-02 4.2 19:41:01 10° NNW 19:41:07 11° NNW 19:41:07 11° NNW
Cosmos 1980 Rocket 4.1 19:47:24 10° SW 19:49:11 21° SW 19:49:11 21° SW
ATLAS 2AS CENTAUR R/B 3.0 19:46:04 10° NW 19:52:43 68° WNW 19:52:43 68° WNW
Lacrosse 5 4.0 20:00:50 10° NW 20:02:41 22° NW 20:02:41 22° NW
